QPF
0.00 0.00 0.01 0.01 0.01 0.00 0.00 0.00 0.00 0.00 0.00 0.00 0.00 0.00 0.00 0.00 0.00 0.00 0.00 0.01 0.01 0.00 0.01 0.02 0.03 0.04 0.04 0.05 0.04 0.04 0.05 0.05 0.06 0.05 0.05 0.04 0.04 0.05 0.06 0.06 0.06 0.06 0.06 0.03 0.02 0.02 0.02 0.02 0.02
0.00 0.00 0.01 0.01 0.01 0.00 0.00 0.00 0.00 0.00 0.00 0.00 0.00 0.00 0.00 0.00 0.00 0.00 0.00 0.01 0.00 0.00 0.01 0.01 0.03 0.03 0.04 0.04 0.03 0.03 0.04 0.05 0.07 0.06 0.05 0.05 0.05 0.04 0.06 0.06 0.05 0.05 0.04 0.02 0.02 0.01 0.01 0.02 0.01
0.00 0.01 0.01 0.01 0.00 0.00 0.00 0.00 0.00 0.00 0.00 0.00 0.00 0.00 0.00 0.00 0.00 0.00 0.00 0.00 0.00 0.00 0.01 0.01 0.03 0.03 0.03 0.04 0.03 0.03 0.03 0.04 0.07 0.07 0.06 0.06 0.05 0.05 0.06 0.05 0.03 0.03 0.03 0.02 0.02 0.02 0.02 0.02 0.01
0.01 0.01 0.01 0.00 0.00 0.00 0.00 0.00 0.00 0.00 0.00 0.00 0.00 0.00 0.00 0.00 0.00 0.00 0.00 0.00 0.00 0.00 0.01 0.01 0.03 0.04 0.03 0.04 0.03 0.04 0.04 0.04 0.05 0.06 0.07 0.07 0.07 0.05 0.04 0.03 0.02 0.02 0.02 0.02 0.03 0.03 0.02 0.01 0.01
0.01 0.01 0.01 0.00 0.00 0.00 0.00 0.00 0.00 0.00 0.00 0.00 0.00 0.00 0.00 0.00 0.00 0.00 0.00 0.00 0.00 0.01 0.01 0.02 0.04 0.04 0.04 0.04 0.03 0.05 0.04 0.04 0.04 0.05 0.05 0.06 0.06 0.05 0.04 0.03 0.03 0.02 0.02 0.02 0.03 0.04 0.03 0.01 0.01
0.02 0.02 0.01 0.00 0.00 0.00 0.00 0.00 0.00 0.00 0.00 0.00 0.00 0.00 0.00 0.00 0.00 0.00 0.00 0.00 0.00 0.01 0.01 0.02 0.04 0.05 0.04 0.05 0.04 0.05 0.05 0.04 0.04 0.04 0.05 0.05 0.05 0.04 0.03 0.02 0.02 0.02 0.02 0.03 0.03 0.03 0.02 0.01 0.01
0.02 0.01 0.01 0.00 0.00 0.00 0.00 0.00 0.00 0.00 0.00 0.00 0.00 0.00 0.00 0.00 0.00 0.00 0.00 0.00 0.00 0.01 0.02 0.03 0.04 0.05 0.05 0.04 0.03 0.04 0.04 0.04 0.03 0.03 0.03 0.03 0.04 0.04 0.03 0.03 0.02 0.02 0.02 0.03 0.04 0.03 0.02 0.01 0.01
0.02 0.02 0.01 0.00 0.00 0.00 0.00 0.00 0.00 0.00 0.00 0.00 0.00 0.00 0.00 0.00 0.00 0.00 0.00 0.00 0.01 0.01 0.02 0.03 0.05 0.05 0.05 0.04 0.03 0.03 0.03 0.04 0.03 0.02 0.02 0.02 0.03 0.04 0.04 0.03 0.03 0.02 0.02 0.02 0.03 0.04 0.03 0.02 0.01
0.02 0.01 0.01 0.00 0.00 0.00 0.00 0.00 0.00 0.00 0.00 0.00 0.00 0.00 0.00 0.00 0.00 0.00 0.00 0.01 0.01 0.01 0.01 0.02 0.03 0.05 0.06 0.06 0.06 0.05 0.04 0.03 0.03 0.01 0.01 0.01 0.02 0.03 0.04 0.04 0.03 0.02 0.02 0.02 0.03 0.03 0.03 0.02 0.01
0.02 0.01 0.01 0.00 0.00 0.00 0.00 0.00 0.00 0.00 0.01 0.00 0.00 0.00 0.00 0.00 0.00 0.00 0.00 0.00 0.00 0.01 0.01 0.01 0.02 0.04 0.06 0.08 0.07 0.06 0.04 0.03 0.01 0.01 0.01 0.01 0.01 0.01 0.02 0.04 0.04 0.02 0.01 0.01 0.03 0.03 0.03 0.02 0.02
0.02 0.01 0.00 0.00 0.00 0.00 0.00 0.00 0.00 0.00 0.01 0.01 0.00 0.00 0.00 0.00 0.00 0.00 0.00 0.00 0.00 0.00 0.00 0.01 0.01 0.02 0.04 0.06 0.06 0.06 0.05 0.03 0.01 0.01 0.01 0.01 0.01 0.02 0.02 0.02 0.03 0.02 0.02 0.01 0.02 0.03 0.03 0.02 0.02
0.01 0.01 0.01 0.00 0.00 0.00 0.00 0.00 0.00 0.00 0.00 0.00 0.00 0.00 0.00 0.00 0.00 0.00 0.00 0.00 0.00 0.00 0.00 0.00 0.01 0.02 0.02 0.04 0.06 0.05 0.05 0.04 0.03 0.02 0.01 0.01 0.01 0.02 0.02 0.02 0.02 0.03 0.02 0.01 0.01 0.02 0.01 0.01 0.01
0.00 0.00 0.01 0.01 0.01 0.01 0.01 0.01 0.00 0.00 0.00 0.00 0.00 0.00 0.00 0.00 0.00 0.01 0.00 0.00 0.00 0.00 0.00 0.00 0.00 0.01 0.02 0.03 0.06 0.07 0.06 0.06 0.05 0.04 0.02 0.01 0.01 0.02 0.02 0.03 0.03 0.03 0.03 0.02 0.01 0.02 0.01 0.01 0.01
0.00 0.00 0.00 0.01 0.01 0.01 0.01 0.01 0.01 0.00 0.00 0.00 0.00 0.00 0.00 0.00 0.01 0.01 0.01 0.01 0.01 0.01 0.01 0.01 0.01 0.01 0.01 0.02 0.03 0.05 0.06 0.07 0.06 0.05 0.04 0.02 0.02 0.02 0.02 0.02 0.04 0.04 0.04 0.03 0.01 0.01 0.01 0.01 0.01
0.00 0.00 0.00 0.02 0.01 0.01 0.01 0.01 0.01 0.00 0.00 0.00 0.00 0.00 0.00 0.00 0.00 0.00 0.00 0.00 0.01 0.01 0.02 0.01 0.01 0.01 0.02 0.03 0.04 0.04 0.05 0.06 0.07 0.06 0.04 0.03 0.02 0.01 0.02 0.03 0.03 0.04 0.06 0.04 0.01 0.01 0.01 0.01 0.01
0.01 0.01 0.02 0.02 0.01 0.01 0.01 0.01 0.01 0.00 0.00 0.00 0.00 0.00 0.00 0.00 0.00 0.00 0.00 0.00 0.01 0.02 0.02 0.02 0.02 0.02 0.02 0.03 0.04 0.04 0.04 0.06 0.07 0.06 0.04 0.03 0.03 0.02 0.02 0.03 0.04 0.04 0.06 0.08 0.04 0.01 0.01 0.01 0.01
0.01 0.01 0.02 0.02 0.01 0.01 0.01 0.01 0.01 0.00 0.00 0.00 0.00 0.00 0.00 0.00 0.00 0.00 0.00 0.00 0.01 0.02 0.03 0.03 0.03 0.03 0.03 0.03 0.04 0.04 0.05 0.05 0.06 0.06 0.04 0.03 0.03 0.03 0.02 0.02 0.03 0.04 0.05 0.06 0.06 0.03 0.02 0.01 0.01
0.01 0.01 0.01 0.01 0.01 0.01 0.01 0.01 0.01 0.00 0.00 0.00 0.00 0.00 0.00 0.00 0.00 0.00 0.00 0.00 0.01 0.01 0.02 0.03 0.04 0.04 0.06 0.06 0.04 0.05 0.04 0.04 0.05 0.05 0.04 0.03 0.02 0.04 0.03 0.02 0.03 0.04 0.05 0.06 0.06 0.04 0.03 0.02 0.02
0.01 0.01 0.01 0.01 0.01 0.01 0.00 0.00 0.00 0.00 0.00 0.00 0.00 0.00 0.00 0.00 0.00 0.00 0.00 0.00 0.01 0.01 0.01 0.02 0.02 0.04 0.06 0.07 0.06 0.05 0.05 0.04 0.03 0.03 0.03 0.03 0.01 0.02 0.04 0.04 0.03 0.04 0.05 0.06 0.06 0.06 0.04 0.03 0.02
0.01 0.01 0.01 0.01 0.00 0.00 0.00 0.00 0.01 0.01 0.01 0.01 0.01 0.00 0.00 0.00 0.00 0.00 0.00 0.00 0.00 0.01 0.01 0.01 0.01 0.02 0.04 0.05 0.05 0.06 0.06 0.06 0.06 0.06 0.04 0.03 0.02 0.01 0.01 0.03 0.04 0.04 0.06 0.07 0.07 0.06 0.07 0.06 0.04
0.00 0.00 0.01 0.01 0.01 0.00 0.00 0.01 0.01 0.01 0.01 0.01 0.01 0.01 0.01 0.01 0.01 0.01 0.00 0.00 0.00 0.01 0.01 0.01 0.01 0.01 0.02 0.04 0.05 0.07 0.08 0.08 0.08 0.08 0.06 0.05 0.04 0.03 0.02 0.01 0.02 0.03 0.05 0.06 0.06 0.05 0.06 0.08 0.07
0.00 0.00 0.00 0.00 0.01 0.01 0.01 0.01 0.01 0.02 0.02 0.01 0.01 0.01 0.01 0.01 0.01 0.01 0.01 0.00 0.00 0.01 0.01 0.01 0.01 0.01 0.01 0.03 0.04 0.05 0.06 0.06 0.07 0.08 0.08 0.06 0.05 0.03 0.03 0.02 0.02 0.02 0.03 0.04 0.05 0.05 0.04 0.05 0.06
0.00 0.00 0.00 0.01 0.01 0.02 0.01 0.01 0.01 0.01 0.02 0.02 0.02 0.02 0.01 0.01 0.01 0.01 0.01 0.01 0.01 0.00 0.01 0.01 0.01 0.01 0.01 0.02 0.03 0.04 0.05 0.05 0.05 0.06 0.07 0.07 0.06 0.05 0.04 0.03 0.03 0.02 0.02 0.03 0.04 0.04 0.04 0.04 0.04
0.01 0.01 0.01 0.01 0.02 0.02 0.01 0.01 0.01 0.01 0.02 0.02 0.02 0.02 0.01 0.01 0.01 0.01 0.01 0.01 0.01 0.00 0.00 0.01 0.02 0.02 0.01 0.01 0.02 0.03 0.03 0.04 0.05 0.05 0.06 0.06 0.06 0.06 0.05 0.05 0.04 0.03 0.03 0.03 0.03 0.03 0.03 0.03 0.04
0.01 0.01 0.02 0.02 0.02 0.01 0.00 0.01 0.02 0.02 0.02 0.02 0.02 0.02 0.01 0.01 0.01 0.01 0.01 0.02 0.01 0.01 0.00 0.01 0.01 0.02 0.01 0.01 0.01 0.01 0.02 0.03 0.03 0.04 0.05 0.06 0.05 0.05 0.05 0.05 0.06 0.06 0.04 0.03 0.03 0.03 0.03 0.04 0.04
0.01 0.01 0.02 0.02 0.01 0.00 0.00 0.01 0.02 0.02 0.02 0.02 0.02 0.01 0.01 0.01 0.01 0.01 0.01 0.01 0.02 0.01 0.01 0.01 0.01 0.01 0.01 0.01 0.01 0.02 0.02 0.02 0.03 0.03 0.04 0.04 0.05 0.05 0.05 0.06 0.05 0.05 0.06 0.06 0.05 0.04 0.03 0.03 0.04
0.01 0.01 0.01 0.03 0.02 0.01 0.01 0.01 0.01 0.02 0.01 0.01 0.01 0.01 0.00 0.00 0.00 0.00 0.01 0.01 0.01 0.01 0.01 0.01 0.01 0.01 0.01 0.01 0.01 0.01 0.01 0.01 0.02 0.03 0.03 0.03 0.04 0.05 0.04 0.05 0.06 0.05 0.05 0.05 0.06 0.05 0.04 0.04 0.04
0.01 0.01 0.01 0.03 0.03 0.02 0.02 0.01 0.01 0.01 0.01 0.01 0.01 0.01 0.00 0.00 0.00 0.00 0.00 0.00 0.01 0.01 0.01 0.01 0.01 0.01 0.01 0.01 0.01 0.01 0.01 0.01 0.01 0.02 0.03 0.02 0.02 0.03 0.03 0.03 0.04 0.05 0.06 0.05 0.05 0.05 0.05 0.04 0.04
0.01 0.01 0.02 0.02 0.02 0.02 0.02 0.01 0.01 0.01 0.01 0.01 0.01 0.01 0.00 0.00 0.00 0.00 0.00 0.00 0.00 0.01 0.01 0.01 0.01 0.01 0.01 0.01 0.01 0.01 0.01 0.01 0.01 0.01 0.01 0.02 0.02 0.02 0.02 0.02 0.02 0.02 0.04 0.05 0.04 0.04 0.04 0.04 0.05
0.00 0.01 0.01 0.02 0.02 0.01 0.02 0.01 0.01 0.01 0.01 0.01 0.01 0.01 0.01 0.01 0.00 0.00 0.00 0.00 0.00 0.00 0.01 0.01 0.01 0.01 0.01 0.01 0.02 0.02 0.01 0.01 0.01 0.01 0.01 0.01 0.01 0.01 0.02 0.02 0.02 0.01 0.01 0.02 0.03 0.03 0.03 0.03 0.03
MSLP
1012.33 1013.25 1014.31 1015.36 1016.28 1016.94 1017.28 1017.28 1017.00 1016.52 1015.97 1015.44 1015.01 1014.73 1014.57 1014.49 1014.44 1014.37 1014.24 1014.07 1013.90 1013.77 1013.76 1013.88 1014.17 1014.58 1015.05 1015.52 1015.93 1016.23 1016.40 1016.48 1016.50 1016.52 1016.58 1016.70 1016.90 1017.15 1017.41 1017.65 1017.84 1017.97 1018.04 1018.07 1018.10 1018.14 1018.21 1018.30 1018.42
1012.91 1013.93 1015.00 1015.98 1016.74 1017.18 1017.25 1016.98 1016.45 1015.78 1015.09 1014.51 1014.09 1013.87 1013.80 1013.82 1013.86 1013.87 1013.80 1013.67 1013.53 1013.44 1013.46 1013.64 1013.98 1014.45 1015.00 1015.55 1016.04 1016.42 1016.67 1016.82 1016.89 1016.95 1017.03 1017.16 1017.34 1017.55 1017.76 1017.95 1018.10 1018.20 1018.26 1018.30 1018.35 1018.43 1018.53 1018.65 1018.79
1013.57 1014.60 1015.61 1016.45 1016.99 1017.18 1016.99 1016.48 1015.76 1014.96 1014.22 1013.65 1013.29 1013.16 1013.20 1013.33 1013.47 1013.55 1013.53 1013.45 1013.34 1013.27 1013.32 1013.53 1013.90 1014.42 1015.01 1015.60 1016.14 1016.57 1016.89 1017.09 1017.22 1017.33 1017.44 1017.58 1017.75 1017.93 1018.09 1018.23 1018.32 1018.38 1018.42 1018.47 1018.54 1018.65 1018.81 1018.99 1019.18
1014.20 1015.18 1016.06 1016.70 1017.02 1016.96 1016.55 1015.86 1015.02 1014.18 1013.46 1012.96 1012.71 1012.70 1012.85 1013.08 1013.30 1013.44 1013.47 1013.42 1013.35 1013.31 1013.39 1013.62 1014.01 1014.53 1015.12 1015.71 1016.25 1016.70 1017.04 1017.28 1017.47 1017.62 1017.78 1017.95 1018.12 1018.29 1018.42 1018.50 1018.55 1018.56 1018.58 1018.62 1018.72 1018.88 1019.10 1019.35 1019.60
1014.67 1015.56 1016.28 1016.72 1016.83 1016.57 1016.00 1015.22 1014.35 1013.54 1012.91 1012.52 1012.40 1012.50 1012.76 1013.06 1013.34 1013.52 1013.59 1013.58 1013.54 1013.55 1013.66 1013.91 1014.30 1014.80 1015.35 1015.90 1016.40 1016.82 1017.14 1017.40 1017.62 1017.83 1018.05 1018.27 1018.47 1018.65 1018.77 1018.83 1018.83 1018.81 1018.80 1018.84 1018.95 1019.15 1019.43 1019.74 1020.07
1014.92 1015.68 1016.24 1016.51 1016.45 1016.06 1015.42 1014.63 1013.81 1013.11 1012.60 1012.35 1012.35 1012.55 1012.86 1013.21 1013.50 1013.70 1013.79 1013.82 1013.83 1013.89 1014.05 1014.33 1014.73 1015.20 1015.70 1016.18 1016.60 1016.95 1017.24 1017.49 1017.73 1017.99 1018.26 1018.55 1018.81 1019.03 1019.18 1019.23 1019.22 1019.17 1019.14 1019.17 1019.28 1019.50 1019.81 1020.18 1020.56
1014.94 1015.57 1015.97 1016.10 1015.93 1015.50 1014.87 1014.15 1013.45 1012.89 1012.53 1012.41 1012.51 1012.76 1013.09 1013.42 1013.69 1013.87 1013.97 1014.03 1014.10 1014.23 1014.45 1014.78 1015.19 1015.65 1016.10 1016.51 1016.85 1017.13 1017.36 1017.59 1017.83 1018.13 1018.47 1018.82 1019.16 1019.44 1019.63 1019.71 1019.71 1019.65 1019.60 1019.61 1019.71 1019.92 1020.25 1020.64 1021.05
1014.78 1015.28 1015.55 1015.58 1015.36 1014.94 1014.38 1013.78 1013.24 1012.84 1012.63 1012.61 1012.76 1013.02 1013.32 1013.60 1013.81 1013.95 1014.03 1014.11 1014.23 1014.43 1014.74 1015.13 1015.59 1016.05 1016.49 1016.85 1017.13 1017.35 1017.53 1017.73 1017.98 1018.31 1018.70 1019.12 1019.53 1019.88 1020.12 1020.24 1020.26 1020.21 1020.14 1020.13 1020.20 1020.40 1020.70 1021.08 1021.50
1014.54 1014.91 1015.08 1015.04 1014.81 1014.43 1013.97 1013.51 1013.12 1012.87 1012.78 1012.84 1013.02 1013.25 1013.48 1013.67 1013.80 1013.88 1013.93 1014.02 1014.18 1014.45 1014.83 1015.31 1015.82 1016.33 1016.78 1017.13 1017.40 1017.59 1017.76 1017.94 1018.20 1018.54 1018.97 1019.44 1019.90 1020.30 1020.60 1020.76 1020.81 1020.77 1020.71 1020.68 1020.73 1020.88 1021.15 1021.50 1021.90
1014.30 1014.56 1014.64 1014.55 1014.32 1013.99 1013.63 1013.29 1013.03 1012.90 1012.90 1013.01 1013.18 1013.37 1013.53 1013.64 1013.68 1013.69 1013.71 1013.79 1013.98 1014.29 1014.74 1015.28 1015.86 1016.42 1016.92 1017.31 1017.60 1017.82 1018.00 1018.21 1018.48 1018.83 1019.27 1019.76 1020.25 1020.68 1021.01 1021.22 1021.30 1021.29 1021.24 1021.21 1021.24 1021.36 1021.58 1021.89 1022.25
1014.14 1014.29 1014.30 1014.17 1013.93 1013.63 1013.32 1013.07 1012.90 1012.85 1012.90 1013.04 1013.21 1013.37 1013.49 1013.54 1013.53 1013.49 1013.48 1013.54 1013.72 1014.04 1014.51 1015.08 1015.70 1016.32 1016.88 1017.34 1017.70 1017.98 1018.22 1018.47 1018.77 1019.14 1019.58 1020.06 1020.54 1020.98 1021.33 1021.56 1021.69 1021.72 1021.71 1021.69 1021.72 1021.82 1022.01 1022.27 1022.58
1014.06 1014.13 1014.07 1013.89 1013.62 1013.32 1013.02 1012.79 1012.67 1012.65 1012.75 1012.91 1013.11 1013.29 1013.42 1013.47 1013.46 1013.41 1013.37 1013.40 1013.55 1013.83 1014.26 1014.81 1015.43 1016.07 1016.68 1017.21 1017.66 1018.04 1018.36 1018.68 1019.02 1019.40 1019.83 1020.29 1020.75 1021.17 1021.52 1021.78 1021.94 1022.04 1022.09 1022.12 1022.18 1022.29 1022.46 1022.69 1022.96
1014.03 1014.05 1013.93 1013.70 1013.38 1013.04 1012.71 1012.47 1012.33 1012.33 1012.46 1012.68 1012.94 1013.20 1013.41 1013.55 1013.60 1013.58 1013.55 1013.54 1013.62 1013.81 1014.14 1014.59 1015.14 1015.74 1016.35 1016.93 1017.46 1017.94 1018.37 1018.77 1019.16 1019.56 1019.98 1020.41 1020.83 1021.23 1021.57 1021.86 1022.08 1022.25 1022.39 1022.51 1022.63 1022.78 1022.97 1023.18 1023.42
1013.97 1013.97 1013.83 1013.56 1013.19 1012.78 1012.39 1012.10 1011.94 1011.94 1012.11 1012.41 1012.80 1013.21 1013.58 1013.87 1014.05 1014.12 1014.11 1014.08 1014.06 1014.11 1014.27 1014.55 1014.94 1015.43 1015.98 1016.55 1017.13 1017.68 1018.20 1018.68 1019.13 1019.57 1019.99 1020.39 1020.78 1021.15 1021.50 1021.82 1022.11 1022.37 1022.62 1022.85 1023.07 1023.30 1023.52 1023.75 1023.97
1013.78 1013.83 1013.69 1013.40 1012.99 1012.53 1012.09 1011.75 1011.56 1011.59 1011.83 1012.25 1012.80 1013.41 1014.00 1014.50 1014.85 1015.04 1015.08 1015.02 1014.89 1014.77 1014.71 1014.76 1014.93 1015.23 1015.64 1016.14 1016.70 1017.28 1017.86 1018.41 1018.92 1019.39 1019.82 1020.22 1020.59 1020.96 1021.32 1021.68 1022.05 1022.42 1022.79 1023.15 1023.50 1023.81 1024.10 1024.35 1024.58
1013.42 1013.54 1013.46 1013.19 1012.78 1012.30 1011.83 1011.48 1011.32 1011.40 1011.74 1012.32 1013.06 1013.89 1014.71 1015.43 1015.98 1016.30 1016.40 1016.31 1016.07 1015.77 1015.47 1015.25 1015.15 1015.21 1015.42 1015.79 1016.26 1016.81 1017.40 1017.98 1018.52 1019.03 1019.48 1019.89 1020.27 1020.65 1021.05 1021.47 1021.92 1022.40 1022.89 1023.38 1023.85 1024.27 1024.63 1024.93 1025.17
1012.84 1013.06 1013.06 1012.86 1012.50 1012.06 1011.65 1011.35 1011.27 1011.47 1011.95 1012.70 1013.65 1014.70 1015.73 1016.65 1017.36 1017.79 1017.94 1017.82 1017.48 1017.01 1016.49 1016.00 1015.63 1015.42 1015.40 1015.56 1015.89 1016.35 1016.89 1017.45 1018.01 1018.53 1019.00 1019.43 1019.84 1020.25 1020.69 1021.17 1021.70 1022.28 1022.89 1023.49 1024.06 1024.58 1025.01 1025.36 1025.63
1012.04 1012.35 1012.45 1012.35 1012.11 1011.80 1011.52 1011.38 1011.47 1011.85 1012.53 1013.47 1014.60 1015.82 1017.02 1018.07 1018.88 1019.38 1019.54 1019.39 1018.97 1018.37 1017.66 1016.96 1016.34 1015.88 1015.61 1015.55 1015.69 1016.00 1016.43 1016.92 1017.45 1017.96 1018.44 1018.89 1019.33 1019.77 1020.25 1020.78 1021.38 1022.04 1022.72 1023.41 1024.07 1024.66 1025.16 1025.57 1025.87
1011.03 1011.41 1011.60 1011.63 1011.55 1011.45 1011.41 1011.54 1011.90 1012.54 1013.46 1014.61 1015.91 1017.25 1018.52 1019.61 1020.44 1020.93 1021.07 1020.88 1020.40 1019.71 1018.89 1018.04 1017.24 1016.58 1016.09 1015.81 1015.74 1015.85 1016.12 1016.50 1016.93 1017.39 1017.85 1018.31 1018.76 1019.23 1019.74 1020.31 1020.94 1021.64 1022.37 1023.11 1023.82 1024.47 1025.02 1025.47 1025.82
1009.85 1010.23 1010.49 1010.65 1010.78 1010.96 1011.25 1011.75 1012.49 1013.48 1014.69 1016.06 1017.50 1018.90 1020.16 1021.20 1021.94 1022.35 1022.42 1022.17 1021.66 1020.94 1020.08 1019.17 1018.29 1017.49 1016.84 1016.37 1016.08 1015.98 1016.05 1016.26 1016.56 1016.93 1017.33 1017.75 1018.19 1018.66 1019.17 1019.75 1020.39 1021.08 1021.82 1022.57 1023.30 1023.97 1024.56 1025.06 1025.45
1008.57 1008.87 1009.14 1009.42 1009.77 1010.28 1010.99 1011.94 1013.14 1014.56 1016.11 1017.72 1019.28 1020.69 1021.88 1022.77 1023.35 1023.59 1023.54 1023.23 1022.69 1021.99 1021.18 1020.30 1019.43 1018.59 1017.84 1017.22 1016.74 1016.43 1016.28 1016.28 1016.41 1016.63 1016.92 1017.27 1017.66 1018.09 1018.58 1019.12 1019.72 1020.38 1021.09 1021.82 1022.54 1023.22 1023.83 1024.37 1024.81
1007.30 1007.44 1007.66 1008.01 1008.58 1009.43 1010.59 1012.05 1013.77 1015.66 1017.60 1019.47 1021.15 1022.54 1023.59 1024.29 1024.63 1024.67 1024.46 1024.06 1023.52 1022.88 1022.16 1021.40 1020.61 1019.81 1019.04 1018.33 1017.70 1017.19 1016.81 1016.59 1016.50 1016.54 1016.69 1016.92 1017.21 1017.57 1017.98 1018.45 1018.99 1019.59 1020.24 1020.92 1021.62 1022.29 1022.92 1023.49 1023.98
1006.21 1006.13 1006.23 1006.62 1007.37 1008.54 1010.14 1012.11 1014.36 1016.74 1019.07 1021.20 1022.99 1024.36 1025.26 1025.73 1025.82 1025.63 1025.24 1024.74 1024.20 1023.63 1023.05 1022.45 1021.80 1021.10 1020.37 1019.61 1018.87 1018.19 1017.61 1017.15 1016.84 1016.68 1016.64 1016.71 1016.87 1017.11 1017.42 1017.80 1018.24 1018.75 1019.33 1019.96 1020.62 1021.28 1021.93 1022.52 1023.07
1005.53 1005.19 1005.15 1005.51 1006.38 1007.82 1009.79 1012.22 1014.95 1017.78 1020.47 1022.85 1024.75 1026.08 1026.85 1027.11 1026.95 1026.52 1025.96 1025.37 1024.82 1024.33 1023.89 1023.45 1022.97 1022.40 1021.74 1020.98 1020.17 1019.35 1018.59 1017.92 1017.39 1017.01 1016.77 1016.66 1016.66 1016.76 1016.93 1017.18 1017.52 1017.93 1018.43 1019.00 1019.63 1020.28 1020.94 1021.57 1022.16
1005.50 1004.92 1004.71 1005.01 1005.94 1007.55 1009.80 1012.56 1015.66 1018.83 1021.82 1024.39 1026.37 1027.68 1028.33 1028.40 1028.03 1027.40 1026.68 1026.01 1025.45 1025.03 1024.71 1024.42 1024.09 1023.66 1023.07 1022.34 1021.49 1020.57 1019.65 1018.81 1018.08 1017.49 1017.05 1016.75 1016.58 1016.51 1016.53 1016.65 1016.86 1017.17 1017.59 1018.11 1018.70 1019.35 1020.02 1020.68 1021.31
1006.35 1005.59 1005.23 1005.45 1006.36 1008.03 1010.40 1013.35 1016.65 1020.02 1023.17 1025.84 1027.86 1029.14 1029.69 1029.62 1029.09 1028.31 1027.48 1026.73 1026.16 1025.78 1025.55 1025.37 1025.16 1024.83 1024.32 1023.61 1022.74 1021.76 1020.73 1019.74 1018.84 1018.07 1017.45 1016.97 1016.61 1016.37 1016.23 1016.21 1016.29 1016.50 1016.83 1017.29 1017.86 1018.50 1019.19 1019.87 1020.52
1008.20 1007.36 1006.91 1007.03 1007.87 1009.47 1011.82 1014.75 1018.06 1021.43 1024.58 1027.24 1029.22 1030.44 1030.91 1030.74 1030.12 1029.25 1028.35 1027.56 1026.98 1026.62 1026.43 1026.32 1026.18 1025.91 1025.44 1024.76 1023.87 1022.85 1021.75 1020.66 1019.63 1018.72 1017.94 1017.29 1016.76 1016.35 1016.05 1015.88 1015.83 1015.92 1016.17 1016.57 1017.10 1017.73 1018.42 1019.12 1019.78
1011.05 1010.25 1009.78 1009.82 1010.53 1011.98 1014.13 1016.86 1019.96 1023.15 1026.12 1028.62 1030.48 1031.60 1031.99 1031.77 1031.11 1030.22 1029.30 1028.51 1027.93 1027.57 1027.38 1027.28 1027.16 1026.90 1026.44 1025.76 1024.87 1023.82 1022.69 1021.54 1020.43 1019.41 1018.50 1017.71 1017.03 1016.46 1016.00 1015.67 1015.49 1015.47 1015.62 1015.95 1016.43 1017.02 1017.69 1018.38 1019.03
1014.70 1014.07 1013.66 1013.66 1014.23 1015.43 1017.27 1019.64 1022.35 1025.16 1027.78 1030.00 1031.63 1032.60 1032.92 1032.67 1032.03 1031.18 1030.30 1029.54 1028.98 1028.61 1028.41 1028.28 1028.11 1027.82 1027.34 1026.64 1025.75 1024.70 1023.56 1022.38 1021.24 1020.16 1019.16 1018.26 1017.44 1016.73 1016.12 1015.64 1015.31 1015.16 1015.20 1015.43 1015.84 1016.37 1017.00 1017.65 1018.27
1018.74 1018.38 1018.13 1018.14 1018.58 1019.51 1020.97 1022.86 1025.06 1027.36 1029.52 1031.34 1032.69 1033.47 1033.70 1033.46 1032.87 1032.11 1031.33 1030.64 1030.10 1029.74 1029.50 1029.31 1029.07 1028.71 1028.18 1027.46 1026.56 1025.52 1024.39 1023.23 1022.09 1020.98 1019.93 1018.95 1018.03 1017.19 1016.44 1015.81 1015.34 1015.05 1014.96 1015.07 1015.37 1015.82 1016.36 1016.94 1017.50
Thickness
5675 5677 5677 5671 5655 5640 5642 5652 5660 5664 5666 5669 5672 5672 5670 5667 5666 5665 5665 5671 5673 5674 5675 5677 5679 5680 5681 5682 5682 5683 5684 5685 5686 5686 5687 5688 5689 5689 5690 5691 5691 5691 5692 5693 5693 5694 5694 5694 5694
5670 5671 5667 5655 5639 5631 5639 5651 5656 5662 5666 5665 5664 5665 5664 5660 5660 5660 5661 5665 5667 5669 5670 5672 5674 5675 5675 5676 5677 5677 5678 5679 5680 5680 5682 5682 5683 5684 5685 5685 5686 5686 5687 5688 5688 5688 5689 5689 5689
5665 5664 5652 5640 5632 5634 5644 5652 5653 5658 5660 5661 5656 5654 5655 5655 5655 5655 5657 5660 5662 5663 5664 5666 5668 5669 5669 5670 5670 5671 5671 5672 5673 5674 5675 5676 5677 5678 5679 5680 5680 5681 5681 5682 5682 5683 5683 5684 5684
5656 5648 5639 5631 5633 5638 5645 5651 5651 5652 5654 5654 5652 5647 5647 5648 5649 5651 5653 5655 5656 5657 5658 5660 5661 5662 5663 5663 5664 5664 5665 5665 5666 5667 5668 5670 5671 5672 5672 5673 5674 5675 5675 5676 5677 5677 5678 5678 5679
5645 5635 5626 5621 5629 5635 5640 5645 5648 5648 5648 5647 5647 5643 5641 5641 5644 5646 5647 5648 5650 5650 5651 5652 5654 5655 5655 5656 5656 5657 5657 5658 5659 5660 5661 5662 5664 5665 5665 5666 5667 5668 5669 5670 5671 5671 5672 5672 5673
5629 5623 5614 5617 5625 5631 5636 5640 5642 5642 5640 5640 5639 5637 5635 5635 5637 5639 5640 5641 5642 5643 5643 5644 5645 5646 5647 5648 5648 5649 5649 5650 5651 5652 5653 5654 5656 5657 5658 5659 5660 5662 5663 5664 5664 5665 5666 5666 5667
5620 5614 5612 5616 5620 5624 5632 5635 5634 5633 5632 5632 5634 5631 5629 5629 5630 5632 5633 5633 5634 5634 5635 5636 5637 5638 5639 5640 5640 5640 5641 5642 5643 5644 5645 5646 5647 5649 5650 5652 5653 5654 5656 5657 5658 5658 5659 5660 5660
5617 5610 5609 5608 5616 5621 5628 5629 5630 5628 5626 5626 5627 5625 5624 5624 5623 5624 5625 5625 5625 5625 5626 5627 5628 5629 5630 5630 5631 5631 5632 5633 5634 5635 5636 5637 5638 5640 5641 5643 5645 5647 5648 5650 5651 5651 5652 5652 5653
5613 5600 5600 5606 5612 5617 5621 5621 5620 5619 5616 5616 5615 5616 5616 5616 5616 5615 5615 5615 5616 5616 5617 5618 5619 5620 5621 5621 5621 5622 5622 5623 5624 5625 5626 5628 5629 5631 5633 5634 5637 5639 5641 5642 5643 5644 5644 5645 5646
5599 5592 5600 5606 5609 5612 5612 5612 5610 5611 5609 5607 5607 5605 5606 5607 5607 5607 5607 5607 5607 5606 5607 5608 5609 5610 5610 5611 5612 5612 5613 5613 5614 5615 5616 5618 5619 5621 5623 5625 5628 5630 5632 5634 5635 5636 5636 5638 5638
5591 5589 5596 5599 5603 5605 5603 5601 5601 5603 5599 5599 5599 5598 5596 5596 5597 5597 5597 5597 5597 5597 5597 5597 5598 5600 5601 5601 5602 5602 5603 5603 5604 5605 5606 5608 5610 5611 5613 5616 5618 5620 5623 5625 5626 5628 5628 5630 5631
5582 5583 5587 5590 5593 5594 5593 5591 5587 5588 5590 5593 5593 5590 5588 5587 5587 5587 5586 5586 5586 5586 5586 5587 5588 5589 5590 5591 5591 5592 5592 5593 5593 5595 5596 5598 5600 5601 5603 5605 5607 5610 5612 5615 5617 5618 5620 5621 5622
5574 5575 5577 5578 5580 5580 5580 5577 5577 5576 5578 5580 5580 5579 5577 5577 5577 5576 5576 5576 5575 5575 5575 5576 5578 5578 5579 5580 5581 5581 5582 5582 5583 5584 5586 5588 5590 5591 5593 5595 5598 5600 5603 5605 5607 5609 5611 5612 5613
5566 5565 5567 5568 5569 5570 5570 5567 5566 5568 5567 5568 5568 5567 5566 5566 5566 5565 5566 5565 5565 5565 5565 5566 5567 5567 5569 5569 5570 5570 5571 5572 5573 5573 5575 5578 5580 5581 5583 5585 5588 5590 5592 5596 5598 5599 5602 5603 5604
5559 5557 5558 5558 5559 5559 5561 5557 5554 5557 5555 5555 5555 5555 5554 5553 5553 5554 5555 5555 5554 5554 5554 5555 5556 5556 5557 5558 5559 5559 5560 5561 5562 5563 5564 5567 5569 5571 5573 5575 5577 5580 5582 5586 5588 5589 5592 5593 5594
5550 5547 5546 5551 5549 5550 5552 5551 5547 5544 5544 5542 5542 5542 5541 5541 5541 5541 5542 5543 5542 5542 5543 5544 5545 5545 5546 5547 5548 5548 5548 5550 5551 5552 5553 5555 5558 5560 5563 5564 5566 5569 5572 5575 5577 5579 5581 5582 5583
5533 5533 5537 5542 5538 5538 5538 5536 5534 5532 5532 5530 5530 5530 5529 5528 5529 5529 5530 5530 5530 5531 5531 5531 5533 5533 5534 5535 5536 5536 5537 5538 5539 5540 5542 5544 5546 5549 5551 5553 5556 5559 5562 5564 5566 5568 5569 5571 5573
5525 5524 5527 5529 5526 5525 5522 5519 5523 5521 5521 5519 5518 5517 5517 5517 5518 5518 5518 5518 5518 5518 5518 5519 5520 5520 5521 5522 5522 5523 5524 5525 5528 5529 5530 5532 5534 5537 5540 5542 5545 5548 5551 5552 5555 5556 5558 5559 5562
5520 5518 5517 5517 5515 5514 5511 5510 5513 5512 5508 5507 5506 5505 5505 5506 5506 5506 5506 5505 5505 5505 5505 5506 5506 5506 5507 5508 5509 5509 5510 5513 5516 5517 5519 5520 5522 5525 5528 5530 5533 5536 5538 5540 5543 5544 5545 5547 5550
5510 5508 5506 5506 5505 5503 5498 5500 5502 5501 5498 5497 5496 5495 5494 5494 5494 5494 5493 5492 5492 5492 5492 5493 5493 5493 5494 5495 5496 5498 5498 5500 5503 5505 5507 5508 5511 5513 5516 5519 5521 5524 5526 5528 5530 5532 5533 5534 5537
5499 5496 5495 5494 5492 5490 5489 5495 5493 5493 5489 5487 5485 5483 5483 5483 5482 5481 5480 5479 5479 5479 5479 5480 5480 5480 5481 5482 5483 5484 5486 5487 5489 5491 5494 5496 5499 5501 5504 5506 5509 5511 5514 5516 5518 5520 5522 5522 5524
5493 5490 5488 5484 5477 5471 5474 5477 5489 5481 5476 5477 5474 5470 5469 5470 5469 5468 5468 5467 5467 5467 5467 5468 5468 5468 5468 5470 5471 5472 5474 5475 5477 5478 5481 5484 5486 5488 5491 5494 5496 5499 5501 5504 5506 5508 5509 5511 5512
5480 5479 5475 5470 5461 5453 5454 5455 5475 5466 5469 5468 5464 5460 5458 5457 5457 5456 5456 5456 5455 5455 5454 5455 5456 5456 5456 5457 5459 5460 5461 5462 5464 5466 5469 5471 5473 5475 5478 5481 5484 5486 5488 5491 5494 5496 5497 5499 5500
5468 5465 5458 5448 5444 5447 5446 5443 5461 5453 5458 5457 5453 5449 5445 5444 5444 5443 5443 5443 5442 5442 5443 5443 5444 5444 5444 5445 5445 5446 5447 5448 5451 5453 5455 5457 5460 5462 5464 5467 5470 5472 5475 5479 5482 5483 5485 5487 5488
5457 5451 5443 5440 5432 5441 5433 5432 5445 5445 5441 5439 5438 5435 5432 5431 5430 5430 5430 5430 5430 5429 5430 5430 5431 5432 5432 5432 5433 5433 5434 5436 5438 5440 5442 5444 5447 5449 5451 5454 5456 5459 5462 5466 5468 5470 5473 5474 5475
5444 5446 5439 5435 5430 5428 5418 5423 5435 5430 5425 5423 5421 5420 5420 5418 5417 5418 5418 5417 5417 5417 5417 5417 5418 5418 5419 5420 5420 5421 5422 5423 5425 5426 5429 5432 5435 5437 5439 5441 5443 5446 5449 5452 5455 5457 5459 5461 5463
5434 5427 5427 5414 5403 5404 5412 5408 5419 5420 5417 5413 5410 5409 5407 5405 5405 5405 5404 5404 5403 5403 5404 5404 5404 5405 5405 5406 5407 5408 5409 5410 5412 5413 5416 5419 5422 5424 5427 5429 5431 5433 5436 5439 5441 5444 5446 5448 5450
5421 5412 5405 5405 5406 5407 5407 5400 5414 5415 5411 5406 5401 5398 5396 5394 5392 5392 5391 5391 5390 5390 5390 5391 5391 5391 5392 5393 5394 5396 5397 5398 5400 5401 5403 5406 5409 5411 5414 5416 5417 5420 5422 5424 5427 5430 5432 5434 5436
5404 5400 5395 5389 5391 5393 5394 5409 5409 5406 5402 5396 5391 5388 5384 5382 5380 5378 5377 5377 5376 5376 5377 5377 5377 5378 5379 5380 5381 5382 5384 5386 5388 5389 5391 5393 5395 5397 5400 5402 5404 5406 5409 5411 5413 5416 5419 5421 5424
5393 5388 5382 5388 5380 5365 5370 5394 5396 5389 5385 5381 5378 5378 5374 5371 5368 5366 5364 5363 5363 5363 5363 5363 5363 5364 5365 5366 5368 5369 5371 5372 5374 5376 5378 5380 5382 5384 5386 5389 5391 5393 5395 5397 5400 5402 5405 5408 5411